• In Netherlands
  • List of Countries
  • For 7 days
  • Water Temperature
  • Satellite Maps
  • Weather Map
  • Weather Widgets
  • user-avatar
    Login

    Hourly Weather Bregenz

    Today, 26 May, Friday

    Time Temperature Precipitation Wind Pressure Humidity
    00:00 +5°C° 0 mm 2 mps 648 mmHg 95%
    01:00 +6°C° 0 mm 1 mps 648 mmHg 95%
    02:00 +6°C° 0 mm 1 mps 647 mmHg 94%
    03:00 +5°C° 0 mm 2 mps 647 mmHg 93%
    04:00 +4°C° 0 mm 2 mps 647 mmHg 92%
    05:00 +7°C° 0 mm 1 mps 647 mmHg 85%
    06:00 +9°C° 0 mm 1 mps 648 mmHg 79%
    07:00 +11°C° 0 mm 1 mps 649 mmHg 73%
    08:00 +13°C° 0 mm 2 mps 649 mmHg 65%
    09:00 +15°C° 0 mm 2 mps 650 mmHg 57%
    10:00 +17°C° 0 mm 2 mps 650 mmHg 49%
    11:00 +18°C° 0 mm 3 mps 650 mmHg 47%
    12:00 +19°C° 0 mm 3 mps 650 mmHg 46%
    13:00 +20°C° 0 mm 3 mps 650 mmHg 45%
    14:00 +20°C° 0 mm 3 mps 650 mmHg 47%
    15:00 +20°C° 0 mm 4 mps 650 mmHg 49%
    16:00 +19°C° 0 mm 4 mps 650 mmHg 51%
    17:00 +18°C° 0 mm 3 mps 649 mmHg 60%
    18:00 +16°C° 0 mm 3 mps 649 mmHg 70%
    19:00 +15°C° 0 mm 2 mps 649 mmHg 79%
    20:00 +12°C° 0 mm 2 mps 648 mmHg 84%
    21:00 +9°C° 0 mm 2 mps 648 mmHg 89%
    22:00 +7°C° 0 mm 1 mps 647 mmHg 94%
    23:00 +7°C° 0 mm 1 mps 647 mmHg 93%

    Tomorrow, 27 May, Saturday

    Time Temperature Precipitation Wind Pressure Humidity
    00:00 +7°C° 0 mm 1 mps 647 mmHg 93%
    01:00 +7°C° 0 mm 1 mps 647 mmHg 92%
    02:00 +7°C° 0 mm 1 mps 647 mmHg 92%
    03:00 +7°C° 0 mm 1 mps 647 mmHg 91%
    04:00 +7°C° 0 mm 1 mps 647 mmHg 90%
    05:00 +9°C° 0 mm 1 mps 648 mmHg 85%
    06:00 +11°C° 0 mm 1 mps 649 mmHg 80%
    07:00 +13°C° 0 mm 1 mps 649 mmHg 74%
    08:00 +15°C° 0 mm 1 mps 650 mmHg 66%
    09:00 +18°C° 0 mm 1 mps 651 mmHg 58%
    10:00 +21°C° 0 mm 1 mps 651 mmHg 50%
    11:00 +21°C° 0 mm 1 mps 652 mmHg 48%
    12:00 +21°C° 0 mm 2 mps 652 mmHg 46%
    13:00 +23°C° 0 mm 2 mps 652 mmHg 44%
    14:00 +23°C° 0 mm 2 mps 652 mmHg 45%
    15:00 +23°C° 0 mm 2 mps 651 mmHg 46%
    16:00 +21°C° 0 mm 2 mps 651 mmHg 47%
    17:00 +20°C° 0 mm 2 mps 651 mmHg 58%
    18:00 +19°C° 0 mm 1 mps 651 mmHg 68%
    19:00 +18°C° 0 mm 1 mps 651 mmHg 78%
    20:00 +14°C° 0 mm 1 mps 650 mmHg 83%
    21:00 +11°C° 0 mm 1 mps 649 mmHg 88%
    22:00 +7°C° 0 mm 0 mps 649 mmHg 93%
    23:00 +8°C° 0 mm 1 mps 649 mmHg 92%

    Day after tomorrow, 28 May, Sunday

    Time Temperature Precipitation Wind Pressure Humidity
    00:00 +8°C° 0 mm 1 mps 649 mmHg 92%
    01:00 +9°C° 0 mm 1 mps 650 mmHg 91%
    02:00 +9°C° 0 mm 1 mps 649 mmHg 91%
    03:00 +9°C° 0 mm 1 mps 649 mmHg 91%
    04:00 +7°C° 0 mm 2 mps 649 mmHg 91%
    05:00 +10°C° 0 mm 1 mps 650 mmHg 86%
    06:00 +13°C° 0 mm 1 mps 651 mmHg 82%
    07:00 +15°C° 0 mm 1 mps 651 mmHg 77%
    08:00 +18°C° 0 mm 1 mps 652 mmHg 67%
    09:00 +20°C° 0 mm 1 mps 653 mmHg 57%
    10:00 +23°C° 0 mm 1 mps 653 mmHg 48%
    11:00 +23°C° 0 mm 1 mps 653 mmHg 46%
    12:00 +24°C° 0 mm 1 mps 653 mmHg 45%
    13:00 +25°C° 0 mm 1 mps 653 mmHg 43%
    14:00 +24°C° 0.2 mm 1 mps 653 mmHg 46%
    15:00 +24°C° 0.2 mm 1 mps 653 mmHg 49%
    16:00 +24°C° 0.2 mm 1 mps 652 mmHg 51%
    17:00 +22°C° 0.2 mm 1 mps 652 mmHg 62%
    18:00 +21°C° 0.2 mm 1 mps 652 mmHg 72%
    19:00 +19°C° 0.2 mm 1 mps 651 mmHg 82%
    20:00 +16°C° 0 mm 1 mps 651 mmHg 85%
    21:00 +13°C° 0 mm 1 mps 651 mmHg 88%
    22:00 +11°C° 0 mm 1 mps 650 mmHg 92%
    23:00 +11°C° 0 mm 1 mps 650 mmHg 92%

    29 May, Monday

    Time Temperature Precipitation Wind Pressure Humidity
    00:00 +11°C° 0 mm 1 mps 650 mmHg 92%
    01:00 +10°C° 0 mm 2 mps 650 mmHg 92%
    02:00 +10°C° 0 mm 2 mps 649 mmHg 92%
    03:00 +10°C° 0 mm 2 mps 649 mmHg 92%
    04:00 +9°C° 0 mm 2 mps 649 mmHg 91%
    05:00 +12°C° 0 mm 2 mps 649 mmHg 87%
    06:00 +14°C° 0 mm 1 mps 650 mmHg 83%
    07:00 +15°C° 0 mm 1 mps 650 mmHg 79%
    08:00 +19°C° 0 mm 1 mps 651 mmHg 70%
    09:00 +21°C° 0 mm 1 mps 651 mmHg 61%
    10:00 +22°C° 0 mm 0 mps 652 mmHg 52%
    11:00 +24°C° 0.1 mm 1 mps 651 mmHg 50%
    12:00 +24°C° 0.1 mm 1 mps 651 mmHg 49%
    13:00 +25°C° 0.1 mm 2 mps 651 mmHg 47%
    14:00 +24°C° 0.4 mm 2 mps 651 mmHg 51%
    15:00 +24°C° 0.4 mm 2 mps 650 mmHg 54%
    16:00 +24°C° 0.4 mm 2 mps 650 mmHg 58%
    17:00 +22°C° 0.5 mm 1 mps 650 mmHg 66%
    18:00 +21°C° 0.5 mm 1 mps 649 mmHg 75%
    19:00 +19°C° 0.5 mm 1 mps 649 mmHg 83%
    20:00 +16°C° 0.5 mm 1 mps 648 mmHg 86%
    21:00 +14°C° 0.5 mm 1 mps 648 mmHg 89%
    22:00 +12°C° 0.5 mm 1 mps 648 mmHg 92%
    23:00 +12°C° 0.7 mm 1 mps 647 mmHg 92%

    30 May, Tuesday

    Time Temperature Precipitation Wind Pressure Humidity
    00:00 +12°C° 0.7 mm 1 mps 647 mmHg 93%
    01:00 +12°C° 0.7 mm 2 mps 647 mmHg 93%
    02:00 +12°C° 0.5 mm 2 mps 647 mmHg 93%
    03:00 +10°C° 0.5 mm 2 mps 647 mmHg 93%
    04:00 +10°C° 0.5 mm 2 mps 647 mmHg 92%
    05:00 +12°C° 0 mm 1 mps 647 mmHg 90%
    06:00 +14°C° 0 mm 1 mps 648 mmHg 87%
    07:00 +15°C° 0 mm 1 mps 648 mmHg 84%
    08:00 +18°C° 0.3 mm 1 mps 649 mmHg 78%
    09:00 +19°C° 0.3 mm 1 mps 649 mmHg 73%
    10:00 +20°C° 0.3 mm 2 mps 649 mmHg 68%
    11:00 +20°C° 0.9 mm 2 mps 649 mmHg 70%
    12:00 +20°C° 0.9 mm 2 mps 649 mmHg 71%
    13:00 +20°C° 0.9 mm 2 mps 649 mmHg 73%
    14:00 +20°C° 0.8 mm 2 mps 649 mmHg 72%
    15:00 +20°C° 0.8 mm 2 mps 649 mmHg 71%
    16:00 +20°C° 0.8 mm 2 mps 649 mmHg 70%
    17:00 +19°C° 0.8 mm 2 mps 649 mmHg 76%
    18:00 +19°C° 0.8 mm 1 mps 649 mmHg 82%
    19:00 +18°C° 0.8 mm 1 mps 649 mmHg 89%
    20:00 +15°C° 0.3 mm 1 mps 649 mmHg 91%
    21:00 +13°C° 0.3 mm 1 mps 649 mmHg 93%
    22:00 +11°C° 0.3 mm 1 mps 648 mmHg 95%
    23:00 +10°C° 0.2 mm 1 mps 648 mmHg 95%

    31 May, Wednesday

    Time Temperature Precipitation Wind Pressure Humidity
    00:00 +10°C° 0.2 mm 1 mps 648 mmHg 96%
    01:00 +8°C° 0.2 mm 0 mps 648 mmHg 96%
    02:00 +8°C° 0.2 mm 0 mps 648 mmHg 97%
    03:00 +7°C° 0.2 mm 0 mps 648 mmHg 97%
    04:00 +7°C° 0.2 mm 0 mps 648 mmHg 98%
    05:00 +9°C° 0.1 mm 0 mps 648 mmHg 96%
    06:00 +11°C° 0.1 mm 0 mps 649 mmHg 94%
    07:00 +13°C° 0.1 mm 0 mps 650 mmHg 92%
    08:00 +14°C° 0.1 mm 0 mps 650 mmHg 86%
    09:00 +18°C° 0.1 mm 1 mps 651 mmHg 80%
    10:00 +19°C° 0.1 mm 1 mps 651 mmHg 75%
    11:00 +20°C° 0.5 mm 1 mps 651 mmHg 74%
    12:00 +19°C° 0.5 mm 2 mps 651 mmHg 73%
    13:00 +20°C° 0.5 mm 2 mps 651 mmHg 73%
    14:00 +19°C° 0.9 mm 2 mps 651 mmHg 75%
    15:00 +19°C° 0.9 mm 2 mps 651 mmHg 77%
    16:00 +19°C° 0.9 mm 2 mps 650 mmHg 79%
    17:00 +18°C° 1.8 mm 2 mps 650 mmHg 83%
    18:00 +18°C° 1.8 mm 1 mps 650 mmHg 88%
    19:00 +16°C° 1.8 mm 1 mps 650 mmHg 92%
    20:00 +14°C° 1.7 mm 1 mps 650 mmHg 93%
    21:00 +12°C° 1.7 mm 1 mps 650 mmHg 95%
    22:00 +10°C° 1.7 mm 1 mps 649 mmHg 96%
    23:00 +10°C° 0.6 mm 1 mps 649 mmHg 96%
    Show more